Lid_Strength_Index
0 1 4 7 12 13 15 12 10 10 9 8 6 6 7 7 8 12 2 1 1 1 -0 -1 -0 -0 -1 -1 -1 -1 -1 -1 -1 -1 -1 -1 -1 -1 -1 -1 -1 -2 -2 -2 -2 -2 -2 -2 -2
3 3 6 9 14 16 14 10 10 9 7 6 6 6 6 7 5 4 3 1 0 1 1 0 -0 -0 -1 -1 -1 -1 -1 -1 -1 -1 -1 -1 -1 -1 -1 -1 -1 -1 -2 -2 -2 -2 -2 -2 -2
2 3 10 11 14 15 14 10 9 8 6 7 8 6 5 6 4 4 1 1 0 1 1 1 -0 -0 -0 -1 -1 -1 -1 -1 -1 -1 0 -0 -1 -1 -1 -1 -1 -1 -2 -2 -2 -2 -2 -1 -1
5 7 9 13 14 11 10 9 8 8 7 6 7 8 4 2 3 2 1 0 1 1 1 1 0 -1 -0 -1 -1 -1 -1 -1 0 0 -0 -0 -0 -1 -1 -1 -1 -1 -2 -2 -2 -2 -2 -2 -1
7 9 13 14 13 10 8 8 8 9 8 6 7 8 6 3 2 1 1 1 1 1 1 0 0 -0 -1 -1 -1 -1 -1 -1 1 -0 -1 -1 0 1 -1 -1 -1 -1 -2 -2 -2 -1 -2 -1 -1
10 10 15 16 12 9 8 7 7 7 7 6 6 6 6 3 3 2 1 2 1 1 1 0 -0 -0 -0 -1 -1 -0 -0 -0 1 0 -0 -1 -0 1 -1 -1 -1 -1 -1 -2 -2 -2 -2 -1 -1
11 13 15 13 12 10 8 8 7 7 7 8 5 7 5 4 2 2 2 1 1 1 1 1 0 -1 -0 0 -0 0 0 0 0 -1 -1 -1 -1 -1 -1 -1 -1 -1 -1 -2 -2 -1 -1 -1 -1
9 12 14 12 12 11 7 8 7 7 9 6 5 7 8 4 2 2 2 2 2 1 1 1 1 -0 1 1 1 0 0 -0 -1 -1 -1 -1 -1 -1 -1 -1 -1 -1 -1 -1 -2 -1 -1 -0 -0
9 13 14 12 11 9 7 8 6 6 7 7 6 6 4 3 2 3 3 3 3 2 2 1 0 -0 -0 1 -0 -0 -1 -0 -1 -1 -1 -1 -0 -1 -1 -1 -1 -1 -1 -1 -1 -1 0 1 1
9 13 12 9 9 8 7 9 9 9 9 8 6 5 3 3 3 4 4 4 3 3 2 2 0 0 -0 -0 1 1 -0 -0 -0 -0 -0 -0 0 0 -1 -1 -1 -1 -1 -1 -1 -0 1 2 4
10 11 9 9 7 7 9 9 8 10 11 8 7 6 4 4 4 4 4 3 3 3 2 2 2 1 1 1 0 1 1 0 0 -0 -0 0 0 -0 -0 -0 -0 0 -0 -0 0 1 3 3 4
10 9 8 8 7 7 9 9 9 10 9 7 7 6 4 4 4 4 4 4 3 3 3 3 2 1 1 1 0 -0 0 0 0 -0 0 1 0 1 0 1 1 1 2 2 2 4 5 5 4
9 8 7 7 8 8 8 8 9 9 7 6 6 6 7 5 4 4 3 4 3 4 3 3 2 1 2 1 1 0 1 0 -0 -0 1 -0 0 1 1 1 2 2 3 3 4 5 5 5 4
8 8 8 8 8 8 9 9 9 8 6 6 6 7 7 7 6 5 4 4 3 3 3 3 2 1 1 3 2 2 1 0 -0 -0 0 0 -0 0 1 2 3 3 4 4 4 5 5 5 4
7 9 9 8 9 10 8 11 10 7 6 7 7 7 7 7 6 5 4 4 3 3 3 3 2 0 1 2 2 2 1 0 0 -0 -0 0 -0 0 2 3 3 4 5 4 4 4 5 5 4
10 10 12 10 9 8 9 12 8 7 7 7 7 7 7 7 6 4 3 3 2 3 3 2 2 1 1 1 1 2 1 0 -0 0 -0 0 0 0 2 3 3 3 5 4 4 4 5 5 5
12 14 12 11 8 9 9 11 8 7 6 7 7 8 8 7 5 4 3 3 3 3 3 3 3 1 1 1 1 1 1 1 2 1 0 0 0 0 1 2 3 2 4 3 4 5 4 5 5
14 13 13 13 10 9 10 10 9 7 8 8 8 8 8 7 5 4 3 3 3 3 3 3 3 1 1 1 1 2 2 2 2 1 1 0 0 0 1 2 2 2 3 4 4 5 5 5 5
11 12 12 11 10 10 11 11 10 7 8 9 9 8 8 7 5 4 3 3 3 3 4 4 3 1 1 2 2 3 3 3 3 2 2 1 1 1 1 2 3 3 3 4 5 5 5 6 6
12 13 13 11 10 10 11 11 10 8 8 8 8 9 8 7 5 4 4 4 4 4 4 4 3 1 1 1 2 3 3 3 3 3 3 2 2 2 3 3 4 4 4 5 5 5 6 6 5
13 13 12 12 11 10 11 12 11 9 8 7 7 7 8 7 5 5 4 4 4 4 4 4 2 1 1 1 2 3 3 3 4 4 4 3 3 3 3 4 5 5 5 5 5 5 5 6 7
14 11 11 11 12 16 10 18 12 10 10 7 7 7 7 8 5 5 4 4 4 4 4 3 2 1 1 2 3 4 5 5 4 4 4 4 4 4 4 4 5 5 5 5 5 4 5 6 7
11 10 11 10 13 14 13 16 14 10 10 9 8 7 7 8 5 5 5 4 4 4 4 4 1 1 1 2 3 3 5 5 4 4 5 5 4 4 4 4 4 4 4 4 4 4 4 5 5
8 9 9 11 12 19 14 15 15 12 10 9 7 7 7 7 5 5 4 3 4 4 4 3 2 2 1 2 3 4 5 5 5 5 5 5 4 4 4 4 4 4 4 3 3 3 3 3 3
9 11 17 19 19 19 12 14 14 10 8 8 8 7 7 6 5 5 5 4 4 5 4 3 2 2 2 2 3 4 4 4 5 5 5 5 5 5 4 4 4 3 3 2 3 3 2 2 2
10 11 17 21 21 19 12 17 14 8 7 7 7 7 7 7 5 5 5 4 4 4 4 4 3 3 2 2 2 3 3 4 4 5 4 5 5 5 4 4 3 3 3 2 2 2 2 2 1
11 13 9 14 13 17 15 12 10 8 8 7 8 8 8 6 5 5 5 4 4 4 4 4 3 2 2 2 2 3 3 3 4 4 5 4 4 4 3 3 4 3 2 2 1 1 1 1 1
10 8 14 14 19 20 16 15 15 11 9 8 8 8 8 6 5 5 4 4 4 4 4 4 4 2 2 2 1 2 3 3 3 3 4 3 3 3 3 2 2 2 2 1 1 1 1 1 2
12 12 11 12 14 19 18 15 9 9 9 8 7 7 7 7 6 6 4 4 4 4 4 4 4 2 2 2 2 1 2 2 2 3 3 2 2 2 2 2 2 2 1 0 1 1 1 2 1
10 11 12 15 16 14 14 15 8 9 8 7 8 7 6 6 6 6 4 4 4 4 4 4 4 3 2 2 2 2 1 2 2 3 2 2 2 2 2 2 1 1 1 1 1 1 1 2 2